Location: Franzen
(48.6167°N, 15.3833°E)
Time: 09:14:49
(UTC+00:00)

Terra - Pass Details

Date: 22 April 2021
Orbit: 701 x 703 km, 98.2° (Epoch: 16 May)

Event Time Altitude Azimuth Distance (km) Brightness Sun altitude
Exits shadow 21:03:52 59° 212° (SSW) 817 1.9 -24.0°
Maximum altitude 21:04:32 67° 258° (WSW) 764 1.9 -24.0°
Drops below altitude 10° 21:09:18 10° 341° (NNW) 2,182 5.4 -24.4°
Sets 21:11:35 0° 344° (NNW) 3,104 6.4 -24.6°
